EN

Hourly Weather Varese

Today, 22 January, Friday

Time Temperature Precipitation Wind Pressure Humidity
00:00 +5°C° 1.7 mm 1 mps 720 mmHg 98%
01:00 +5°C° 1.7 mm 1 mps 720 mmHg 98%
02:00 +5°C° 0.9 mm 1 mps 719 mmHg 98%
03:00 +4°C° 0.9 mm 0 mps 719 mmHg 98%
04:00 +4°C° 0.9 mm 0 mps 718 mmHg 98%
05:00 +4°C° 0.4 mm 0 mps 718 mmHg 98%
06:00 +4°C° 0.4 mm 0 mps 718 mmHg 98%
07:00 +4°C° 0.4 mm 0 mps 718 mmHg 97%
08:00 +4°C° 0.1 mm 0 mps 718 mmHg 97%
09:00 +4°C° 0.1 mm 0 mps 717 mmHg 96%
10:00 +5°C° 0.1 mm 0 mps 717 mmHg 96%
11:00 +5°C° 0.1 mm 0 mps 716 mmHg 95%
12:00 +6°C° 0.1 mm 1 mps 716 mmHg 94%
13:00 +7°C° 0.1 mm 1 mps 715 mmHg 93%
14:00 +6°C° 1.2 mm 1 mps 714 mmHg 94%
15:00 +6°C° 1.2 mm 1 mps 713 mmHg 96%
16:00 +6°C° 1.2 mm 1 mps 712 mmHg 97%
17:00 +6°C° 1.8 mm 1 mps 711 mmHg 96%
18:00 +5°C° 1.8 mm 2 mps 711 mmHg 95%
19:00 +5°C° 1.8 mm 2 mps 710 mmHg 93%
20:00 +5°C° 1.3 mm 2 mps 710 mmHg 93%
21:00 +5°C° 1.3 mm 2 mps 709 mmHg 93%
22:00 +5°C° 1.3 mm 2 mps 709 mmHg 93%
23:00 +5°C° 2.1 mm 2 mps 709 mmHg 93%

Tomorrow, 23 January, Saturday

Time Temperature Precipitation Wind Pressure Humidity
00:00 +5°C° 2.1 mm 2 mps 709 mmHg 93%
01:00 +6°C° 2.1 mm 1 mps 709 mmHg 93%
02:00 +6°C° 1.4 mm 1 mps 710 mmHg 92%
03:00 +6°C° 1.4 mm 1 mps 710 mmHg 91%
04:00 +5°C° 1.4 mm 1 mps 711 mmHg 90%
05:00 +4°C° 0.1 mm 2 mps 711 mmHg 87%
06:00 +4°C° 0.1 mm 2 mps 712 mmHg 84%
07:00 +3°C° 0.1 mm 2 mps 712 mmHg 82%
08:00 +3°C° 0 mm 2 mps 712 mmHg 77%
09:00 +4°C° 0 mm 2 mps 713 mmHg 73%
10:00 +4°C° 0 mm 2 mps 713 mmHg 69%
11:00 +5°C° 0 mm 2 mps 713 mmHg 67%
12:00 +6°C° 0 mm 1 mps 713 mmHg 66%
13:00 +7°C° 0 mm 1 mps 713 mmHg 64%
14:00 +7°C° 0 mm 1 mps 712 mmHg 66%
15:00 +7°C° 0 mm 1 mps 712 mmHg 68%
16:00 +6°C° 0 mm 0 mps 712 mmHg 70%
17:00 +5°C° 0 mm 1 mps 712 mmHg 71%
18:00 +4°C° 0 mm 1 mps 712 mmHg 72%
19:00 +3°C° 0 mm 1 mps 713 mmHg 74%
20:00 +1°C° 0 mm 2 mps 713 mmHg 72%
21:00 +1°C° 0 mm 2 mps 713 mmHg 71%
22:00 -1°C° 0 mm 2 mps 713 mmHg 69%
23:00 -1°C° 0 mm 2 mps 713 mmHg 68%

Day after tomorrow, 24 January, Sunday

Time Temperature Precipitation Wind Pressure Humidity
00:00 -1°C° 0 mm 2 mps 714 mmHg 66%
01:00 -1°C° 0 mm 2 mps 714 mmHg 65%
02:00 -1°C° 0 mm 2 mps 714 mmHg 64%
03:00 -1°C° 0 mm 2 mps 714 mmHg 63%
04:00 -1°C° 0 mm 2 mps 714 mmHg 62%
05:00 -1°C° 0 mm 2 mps 715 mmHg 62%
06:00 -1°C° 0 mm 2 mps 715 mmHg 63%
07:00 -1°C° 0 mm 2 mps 716 mmHg 63%
08:00 -1°C° 0 mm 2 mps 716 mmHg 61%
09:00 +1°C° 0 mm 2 mps 716 mmHg 59%
10:00 +2°C° 0 mm 2 mps 716 mmHg 57%
11:00 +3°C° 0 mm 2 mps 716 mmHg 54%
12:00 +6°C° 0 mm 1 mps 716 mmHg 51%
13:00 +7°C° 0 mm 1 mps 716 mmHg 48%
14:00 +6°C° 0 mm 1 mps 716 mmHg 51%
15:00 +6°C° 0 mm 1 mps 716 mmHg 55%
16:00 +6°C° 0 mm 1 mps 716 mmHg 58%
17:00 +4°C° 0 mm 1 mps 716 mmHg 61%
18:00 +3°C° 0 mm 1 mps 717 mmHg 65%
19:00 +2°C° 0 mm 1 mps 717 mmHg 68%
20:00 +2°C° 0 mm 1 mps 717 mmHg 68%
21:00 +1°C° 0 mm 1 mps 717 mmHg 68%
22:00 -1°C° 0 mm 2 mps 717 mmHg 68%
23:00 -1°C° 0 mm 2 mps 717 mmHg 66%

25 January, Monday

Time Temperature Precipitation Wind Pressure Humidity
00:00 -1°C° 0 mm 2 mps 717 mmHg 64%
01:00 -2°C° 0 mm 2 mps 717 mmHg 62%
02:00 -2°C° 0 mm 2 mps 717 mmHg 61%
03:00 -2°C° 0 mm 2 mps 718 mmHg 59%
04:00 -2°C° 0 mm 2 mps 718 mmHg 58%
05:00 -2°C° 0 mm 2 mps 719 mmHg 59%
06:00 -2°C° 0 mm 2 mps 720 mmHg 59%
07:00 -2°C° 0 mm 2 mps 721 mmHg 60%
08:00 -1°C° 0 mm 2 mps 721 mmHg 57%
09:00 -1°C° 0 mm 2 mps 722 mmHg 55%
10:00 0°C° 0 mm 3 mps 723 mmHg 53%
11:00 +2°C° 0 mm 3 mps 723 mmHg 48%
12:00 +3°C° 0 mm 3 mps 724 mmHg 43%
13:00 +5°C° 0 mm 2 mps 724 mmHg 38%
14:00 +5°C° 0 mm 2 mps 724 mmHg 41%
15:00 +5°C° 0 mm 2 mps 725 mmHg 44%
16:00 +5°C° 0 mm 2 mps 725 mmHg 47%
17:00 +3°C° 0 mm 2 mps 725 mmHg 51%
18:00 +2°C° 0 mm 2 mps 726 mmHg 55%
19:00 -1°C° 0 mm 2 mps 727 mmHg 59%
20:00 -1°C° 0 mm 3 mps 727 mmHg 58%
21:00 -2°C° 0 mm 3 mps 728 mmHg 57%
22:00 -2°C° 0 mm 3 mps 728 mmHg 57%
23:00 -2°C° 0 mm 3 mps 728 mmHg 56%

26 January, Tuesday

Time Temperature Precipitation Wind Pressure Humidity
00:00 -2°C° 0 mm 3 mps 728 mmHg 56%
01:00 -2°C° 0 mm 3 mps 729 mmHg 56%
02:00 -2°C° 0 mm 3 mps 729 mmHg 56%
03:00 -3°C° 0 mm 2 mps 729 mmHg 56%
04:00 -3°C° 0 mm 2 mps 729 mmHg 56%
05:00 -3°C° 0 mm 2 mps 729 mmHg 56%
06:00 -3°C° 0 mm 2 mps 729 mmHg 56%
07:00 -3°C° 0 mm 2 mps 729 mmHg 56%
08:00 -2°C° 0 mm 2 mps 730 mmHg 54%
09:00 -1°C° 0 mm 2 mps 730 mmHg 53%
10:00 +1°C° 0 mm 2 mps 730 mmHg 51%
11:00 +2°C° 0 mm 2 mps 730 mmHg 49%
12:00 +5°C° 0 mm 1 mps 730 mmHg 47%
13:00 +6°C° 0 mm 1 mps 729 mmHg 45%
14:00 +6°C° 0 mm 1 mps 729 mmHg 48%
15:00 +6°C° 0 mm 1 mps 729 mmHg 51%
16:00 +6°C° 0 mm 1 mps 729 mmHg 54%
17:00 +5°C° 0 mm 1 mps 729 mmHg 57%
18:00 +4°C° 0 mm 1 mps 729 mmHg 60%
19:00 +2°C° 0 mm 1 mps 729 mmHg 63%
20:00 +2°C° 0 mm 1 mps 730 mmHg 63%
21:00 +2°C° 0 mm 1 mps 730 mmHg 62%
22:00 +2°C° 0 mm 1 mps 730 mmHg 62%
23:00 +2°C° 0 mm 1 mps 729 mmHg 62%

27 January, Wednesday

Time Temperature Precipitation Wind Pressure Humidity
00:00 +2°C° 0 mm 1 mps 729 mmHg 63%
01:00 +2°C° 0 mm 1 mps 729 mmHg 63%
02:00 +2°C° 0 mm 1 mps 728 mmHg 63%
03:00 +2°C° 0 mm 1 mps 728 mmHg 63%
04:00 +2°C° 0 mm 1 mps 728 mmHg 63%
05:00 +2°C° 0.1 mm 1 mps 728 mmHg 63%
06:00 +2°C° 0.1 mm 1 mps 727 mmHg 64%
07:00 +2°C° 0.1 mm 1 mps 727 mmHg 64%
08:00 +2°C° 0.2 mm 1 mps 727 mmHg 68%
09:00 +3°C° 0.2 mm 1 mps 728 mmHg 72%
10:00 +3°C° 0.2 mm 1 mps 728 mmHg 76%
11:00 +5°C° 0 mm 1 mps 728 mmHg 73%
12:00 +6°C° 0 mm 1 mps 728 mmHg 71%
13:00 +7°C° 0 mm 1 mps 728 mmHg 68%
14:00 +7°C° 0 mm 1 mps 729 mmHg 70%
15:00 +7°C° 0 mm 1 mps 729 mmHg 72%
16:00 +8°C° 0 mm 1 mps 729 mmHg 73%
17:00 +5°C° 0 mm 2 mps 729 mmHg 71%
18:00 +3°C° 0 mm 3 mps 730 mmHg 69%
19:00 +2°C° 0 mm 3 mps 730 mmHg 67%
20:00 +2°C° 0 mm 3 mps 731 mmHg 67%
21:00 +1°C° 0 mm 3 mps 731 mmHg 66%
22:00 +2°C° 0 mm 2 mps 731 mmHg 65%
23:00 +2°C° 0 mm 2 mps 731 mmHg 65%
Show more

We Need Your Consent

Meteoprog and our Service Providers may store and access personal data such as cookies, device identifiers or other similar technologies on your device and process such data to personalise content and ads, as well as provide social media features and to analyse the traffic.

  • Store and/or access information on your device

    Cookies, device identifiers or other information can be stored or accessed on your device for the purposes indicated above.

  • Personalised ads and content, ad and content measurement, audience insights, and products development

    Ads and content can be personalised based on a profile. More data can be added to better personalise ads and content. Ad and content performance can be measured. Insights about the audience who saw the ads and content can be derived. Such data can be used to develop or improve user’s experience, systems and software.

By clicking ‘I Agree’ you will allow the use of indicated cookies, device identifiers, web beacons or other similar technologies. Your settings can be changed in the browser on your device.

For certain purposes, legitimate interests may be relied on, rather than consent. You can read more about this in our Privacy and Cookie Policy.